Regional Weather Roundup
Issued by NWS

Home | Current Version | Previous Version | Text Only | Print | Product List | Glossary On
Versions: 1 2 3 4 5 6 7 8 9 10 11 12 13 14 15 16 17 18 19 20 21 22 23 24 25 26 27 28 29 30 31 32 33 34 35 36 37 38 39 40 41 42 43 44 45 46 47 48
000
ASUS45 KREV 280010
RWRNV
NEVADA REGIONAL WEATHER ROUNDUP
NATIONAL WEATHER SERVICE RENO NV
500 PM PDT WED MAY 27 2015

NOTE: "FAIR" INDICATES FEW OR NO CLOUDS BELOW 12,000 FEET WITH NO
SIGNIFICANT WEATHER AND/OR OBSTRUCTIONS TO VISIBILITY.

NVZ001-003-004-280100-
WESTERN NEVADA

CITY           SKY/WX    TMP DP  RH WIND       PRES   REMARKS
RENO           MOSUNNY   80  36  20 N12G20    29.97S
6HR MIN TEMP:  70; 6HR MAX TEMP:  82;

CARSON CITY    FAIR      77  32  19 W15       30.01S
MINDEN         FAIR      77  37  24 W15G22    30.01
PYRAMID LAKE     N/A     75 N/A N/A NE3         N/A
FALLON         NOT AVBL
LOVELOCK       MOSUNNY   81  32  17 W13G21    29.94F
6HR MIN TEMP:  72; 6HR MAX TEMP:  81;

HAWTHORNE      SUNNY     81  36  19 NW12      29.94S
$$

NVZ002-CAZ072-073-280100-
NORTHERN AND CENTRAL SIERRA

CITY           SKY/WX    TMP DP  RH WIND       PRES   REMARKS
S. LAKE TAHOE  SUNNY     70  38  31 S13G20    30.11S
6HR MIN TEMP:  64; 6HR MAX TEMP:  72;

TRUCKEE        MOSUNNY   70  37  30 W13G18    30.11R
                   6HR MAX TEMP:  70;

SQUAW VLY 8000   N/A     55  32  41 SW12        N/A
SUSANVILLE     CLOUDY    77  37  24 SW10G16   29.98S
BLUE CANYON    SUNNY     66  38  35 W10       30.12S
MAMMOTH LAKES  FAIR      72  19  14 W17G23    30.13F
BRIDGEPORT     FAIR      70  36  28 SW12G18   30.10S
$$

NVZ030-031-036-280100-
NORTHERN NEVADA

CITY           SKY/WX    TMP DP  RH WIND       PRES   REMARKS
ELKO           MOSUNNY   71  44  37 E10       30.00R
6HR MIN TEMP:  64; 6HR MAX TEMP:  72;

WINNEMUCCA     SUNNY     75  36  24 W15       29.97F
6HR MIN TEMP:  66; 6HR MAX TEMP:  76;

WENDOVER       CLOUDY    59  43  55 E13       30.02F
$$

NVZ035-037-280100-
CENTRAL NEVADA

CITY           SKY/WX    TMP DP  RH WIND       PRES   REMARKS
ELY            CLOUDY    54  47  77 N9        30.13F
6HR MIN TEMP:  45; 6HR MAX TEMP:  63; 6HR PCP:  0.20;

EUREKA           N/A     63  46  54 SE16G24   30.03F
6HR MIN TEMP:  59; 6HR MAX TEMP:  72; 6HR PCP:  0.06;

$$

NVZ013-014-280100-
SOUTH CENTRAL NEVADA

CITY           SKY/WX    TMP DP  RH WIND       PRES   REMARKS
TONOPAH        MOSUNNY   78  24  13 W10       29.98F
6HR MIN TEMP:  71; 6HR MAX TEMP:  82;

$$

NVZ017-020-022-280100-
SOUTHERN NEVADA

CITY           SKY/WX    TMP DP  RH WIND       PRES   REMARKS
LAS VEGAS      MOSUNNY   92  32  12 S12G23    29.78F
6HR MIN TEMP:  84; 6HR MAX TEMP:  93;

N. LAS VEGAS   SUNNY     92  26   9 S8        29.81F
6HR MIN TEMP:  83; 6HR MAX TEMP:  92;

NELLIS AFB     SUNNY     92  33  12 S8        29.79F
6HR MIN TEMP:  84; 6HR MAX TEMP:  92;

HENDERSON      SUNNY     91  39  16 SE14G22   29.85F
6HR MIN TEMP:  84; 6HR MAX TEMP:  92;

MERCURY        SUNNY     89  23   9 S14G23    29.87F
6HR MIN TEMP:  81; 6HR MAX TEMP:  91;

$$


USA.gov is the U.S. government's official web portal to all federal, state and local government web resources and services.